Regional Weather Roundup
Issued by NWS

Home | Current Version | Previous Version | Graphics & Text | Print | Product List | Glossary On
Versions: 1 2 3 4 5 6 7 8 9 10 11 12 13 14 15 16 17 18 19 20 21 22 23 24 25 26 27 28 29 30 31 32 33 34 35 36 37 38 39 40 41 42 43 44 45 46 47 48 49 50
677
ASUS43 KFSD 230502
RWRSD

WEATHER ROUNDUP FOR SOUTH DAKOTA
NATIONAL WEATHER SERVICE SIOUX FALLS SD
1100 PM CST WED FEB 22 2017

NOTE: "FAIR" INDICATES FEW OR NO CLOUDS BELOW 12,000 FEET WITH NO
SIGNIFICANT WEATHER AND/OR OBSTRUCTIONS TO VISIBILITY.


SDZ001>005-009-010-012>017-230600-
NORTHWEST AND NORTH CENTRAL SOUTH DAKOTA

CITY           SKY/WX    TMP DP  RH WIND       PRES   REMARKS
BUFFALO          N/A     30  28  92 NE12      29.86S WCI  20
FAITH            N/A     30  30 100 NE6       29.94R WCI  24
MOBRIDGE       CLOUDY    33  25  72 NE12      29.94F WCI  24
$$

SDZ012>016-024>037-041>051-057-063-072>074-230600-
SOUTHWEST AND SOUTH CENTRAL SOUTH DAKOTA

CITY           SKY/WX    TMP DP  RH WIND       PRES   REMARKS
RAPID CTY ARPT CLOUDY    32  27  81 NE13      29.91S WCI  22
PIERRE         CLOUDY    32  27  81 NE15      29.94R WCI  22
CUSTER         FOG       26  24  92 NE14      29.81F VSB 1/4 WCI  14
ELLSWORTH AFB  CLOUDY    32  28  86 NE8       29.91  WCI  24
PHILIP         CLOUDY    34  30  85 NE10      29.94F WCI  26
PINE RIDGE     CLOUDY    34  30  85 NE12      29.90R WCI  25
SPEARFISH      CLOUDY    30  28  93 E9        29.89F WCI  22
WINNER         CLOUDY    37  34  89 NE14      29.91S
$$

SDZ004>011-016>023-039-040-230600-
NORTHEAST SOUTH DAKOTA

CITY           SKY/WX    TMP DP  RH WIND       PRES   REMARKS
ABERDEEN       PTCLDY    30  24  78 N13       29.95F WCI  20
WATERTOWN      CLOUDY    30  25  81 N18G25    29.88R WCI  18
BROOKINGS      CLOUDY    32  29  88 N14       29.87R WCI  22
SISSETON         N/A     32  28  85 N12       29.92R WCI  23
$$

SDZ017-020-022-023-036>040-048>070-230600-
SOUTHEAST SOUTH DAKOTA

CITY           SKY/WX    TMP DP  RH WIND       PRES   REMARKS
SIOUX FALLS    CLOUDY    35  33  92 N9        29.89R WCI  28
HURON          CLOUDY    32  27  81 N14G26    29.94R WCI  22
CHAMBERLAIN    CLOUDY    35  32  90 N10       29.94R WCI  27
MITCHELL       CLOUDY    34  31  88 N16G25    29.94R WCI  24
YANKTON        CLEAR     37  34  87 NW9       29.87S
$$

ABBREVIATIONS USED IN REMARKS
   TC - TEMPERATURE IN CELSIUS
  WCI - WIND CHILL INDEX
   HX - HEAT INDEX
  VSB - VISIBILITY





USA.gov is the U.S. government's official web portal to all federal, state and local government web resources and services.